Regional Weather Roundup
Issued by NWS

Home | Current Version | Previous Version | Text Only | Print | Product List | Glossary On
Versions: 1 2 3 4 5 6 7 8 9 10 11 12 13 14 15 16 17 18 19 20 21 22 23 24 25 26 27 28 29 30 31 32 33 34 35 36 37 38 39 40 41 42 43 44 45 46 47 48 49 50
000
ASUS43 KDTX 021601
RWRMI
MICHIGAN HOURLY REGIONAL WEATHER ROUNDUP
NATIONAL WEATHER SERVICE DETROIT/PONTIAC MI
1200 PM EDT WED SEP 02 2015

NOTE: "FAIR" INDICATES FEW OR NO CLOUDS BELOW 12,000 FEET WITH NO
SIGNIFICANT WEATHER AND/OR OBSTRUCTION TO VISIBILITY.

MIZ047>049-052>055-059>063-066>070-074>076-081>083-021700-
SOUTHEAST LOWER MICHIGAN

CITY           SKY/WX    TMP DP  RH WIND       PRES   REMARKS
ADRIAN         MOSUNNY   79  70  74 VRB5      30.08F
ALMA           SUNNY     82  75  79 S5        30.02F
ANN ARBOR      PTSUNNY   78  71  79 SW8       30.06F
BAD AXE        PTSUNNY   82  73  74 W7        30.01F
DETROIT CITY   MOSUNNY   83  70  64 SW8       30.04F
DETROIT        PTSUNNY   81  69  67 SW10      30.06S
FLINT          SUNNY     85  71  63 S9        30.03F HX  90
GROSSE ILE     PTSUNNY   79  73  83 S10       30.05F
HILLSDALE      SUNNY     83  72  68 W5        30.09S
HOWELL         SUNNY     83  71  66 W7        30.05S

CITY           SKY/WX    TMP DP  RH WIND       PRES   REMARKS
JACKSON        SUNNY     81  72  74 SW5       30.07S
LAMBERTVILLE   CLOUDY    74  71  90 CALM      30.09F FOG
LANSING        SUNNY     83  72  69 SW7       30.05S
LAPEER         FAIR      83  71  65 W3        30.03F
MASON          SUNNY     81  70  69 SW6       30.06S
MONROE         CLOUDY    80  69  68 SW9       30.07R
MT. CLEMENS    MOSUNNY   84  73  69 S9        30.02F HX  90
PONTIAC        PTSUNNY   84  68  58 SW9       30.04F
PORT HOPE        N/A     82  74  76 SW7       29.99F
PORT HURON     SUNNY     84  73  70 S7        30.03S HX  91
TRI CITIES     MOSUNNY   82  73  74 SW6       30.01F
MIDLAND        FAIR      82  72  70 W3        30.00F
TROY           SUNNY     85  71  61 SW8       30.06S HX  90
SAGINAW HB     SUNNY     82  73  74 SW7       30.01S
$$
MIZ043>046-050>051-056>058-064>065-071>073-077>080-021700-
SOUTHWEST LOWER MICHIGAN

CITY           SKY/WX    TMP DP  RH WIND       PRES   REMARKS
BATTLE CREEK   SUNNY     85  72  65 W12       30.06F HX  91
BENTON HARBOR  SUNNY     80  70  71 SW10      30.06F
BIG RAPIDS     MOSUNNY   82  74  77 SW5       30.01F
COLDWATER      SUNNY     85  71  63 W8        30.08S
FREMONT        FAIR      82  74  77 W7        30.01F
HOLLAND        SUNNY     82  70  66 SW14      30.05F
GRAND RAPIDS   MOSUNNY   83  73  72 W8        30.03F
IONIA          FAIR      83  73  70 SW7       30.02F
KALAMAZOO      SUNNY     85  71  63 SW8       30.06F HX  90
LUDINGTON      SUNNY     78  73  83 SW7       30.01S
MARSHALL       MOSUNNY   85  72  65 SW10      30.06S HX  90
MOUNT PLEASANT SUNNY     84  74  70 W3        30.01S HX  91
MUSKEGON       MOSUNNY   79  69  71 W8        30.03F
SOUTH HAVEN    SUNNY     80  69  70 SW9       30.05F
$$
MIZ016>042-021700-
NORTHERN LOWER MICHIGAN

CITY           SKY/WX    TMP DP  RH WIND       PRES   REMARKS
ALPENA         MOSUNNY   85  72  65 VRB3      29.98F HX  91
BEAVER ISLAND  MOSUNNY   76  68  76 NW5       29.99R
BELLAIRE       MOSUNNY   82  71  68 S5        29.98F
CADILLAC       PTSUNNY   78  73  85 SW5       30.02F
CHARLEVOIX     MOSUNNY   80  72  77 W8        30.01S
FRANKFORT      MOSUNNY   78  73  82 W7        30.00R
GAYLORD        SUNNY     82  72  71 CALM      30.01F
GRAYLING       SUNNY     82  73  72 W6        30.01F
HARBOR SPRINGS MOSUNNY   78  72  80 SW5       29.98F
HOUGHTON LAKE  SUNNY     80  72  76 W3        30.02F
MANISTEE       MOSUNNY   79  72  78 W8        30.01R
OSCODA         SUNNY     86  73  65 CALM      29.98S HX  92
PELLSTON       MOSUNNY   82  72  71 CALM      29.98F
ROGERS CITY    MOSUNNY   76  70  82 N3        30.00S HAZE
TRAVERSE CITY  MOSUNNY   86  74  67 SW3       29.96F HX  94
$$
MIZ007>008-015-021700-
EASTERN UPPER MICHIGAN

CITY           SKY/WX    TMP DP  RH WIND       PRES   REMARKS
KINROSS        CLOUDY    72  72 100 N3        30.00S
MACKINAC ISLAN MOSUNNY   75  70  84 CALM      29.99S
NEWBERRY       CLOUDY    71  71  97 NE3       30.00S FOG
S. S. MARIE    CLOUDY    74  69  85 CALM      29.99R HAZE
$$
MIZ004>006-011>014-085-021700-
CENTRAL UPPER MICHIGAN

CITY           SKY/WX    TMP DP  RH WIND       PRES   REMARKS
MANISTIQUE     PTSUNNY   77  69  77 SE5       29.99R
ESCANABA       CLOUDY    72  66  83 CALM      29.98R
MENOMINEE      MOSUNNY   82  72  69 S3        29.96S
SAWYER-GWINN   LGT RAIN  70  66  88 N7        30.03R
$$
MIZ001>003-009>011-084-021700-
WESTERN UPPER MICHIGAN

CITY           SKY/WX    TMP DP  RH WIND       PRES   REMARKS
IRON MOUNTAIN  CLOUDY    72  65  78 CALM      29.98F
HOUGHTON       LGT RAIN  65  64  97 SW5       30.04R VSB<1/4
IRONWOOD       CLOUDY    66  66 100 NE3       30.01R
$$

ABBREVIATIONS USED IN REMARKS
   TC - TEMPERATURE IN CELSIUS
  WCI - WIND CHILL INDEX
   HX - HEAT INDEX
  VSB - VISIBILITY




USA.gov is the U.S. government's official web portal to all federal, state and local government web resources and services.